This demonstration page uses our WeatherBlox Daily Observations layout. Learn more.

Left ArrowRight Arrow

39.51506, -84.39828

Hourly Observations for November 18, 2020

Temp ( °F °C ) Dew Point ( °F °C ) Humidity (%) Winds ( mph kmh ) Pressure ( in mb ) Visibility ( mi km ) Precip ( " mm )
12:15 am 00:15 Clear 26 -3.6 22 -5.8 85 85 Calm 30.59 1036 10 16.0934 0 0
12:35 am 00:35 Clear 26 -3.6 23 -5.2 89 89 Calm 30.59 1036 10 16.0934 0 0
12:55 am 00:55 Clear 26 -3.1 25 -4 94 94 Calm 30.58 1036 10 16.0934 0 0
1:15 am 01:15 Clear 26 -3.4 24 -4.4 93 93 Calm 30.6 1036 10 16.0934 0 0
1:35 am 01:35 Clear 25 -4 23 -4.8 94 94 Calm 30.6 1036 10 16.0934 0 0
1:55 am 01:55 Clear 25 -3.9 23 -4.8 94 94 Calm 30.61 1036 10 16.0934 0 0
2:15 am 02:15 Clear 24 -4.3 23 -4.8 96 96 Calm 30.61 1036 10 16.0934 0 0
2:35 am 02:35 Clear 25 -3.9 24 -4.7 94 94 Calm 30.61 1036 10 16.0934 0 0
2:55 am 02:55 Partly Cloudy 25 -4 23 -4.8 94 94 Calm 30.61 1036 10 16.0934 0 0
3:15 am 03:15 Cloudy 25 -3.8 24 -4.7 94 94 Calm 30.62 1037 10 16.0934 0 0
3:35 am 03:35 Cloudy 26 -3.2 25 -3.9 95 95 Calm 30.61 1037 10 16.0934 0 0
3:55 am 03:55 Cloudy 27 -2.9 25 -3.8 94 94 Calm 30.61 1037 10 16.0934 0 0
4:15 am 04:15 Cloudy 28 -2.4 26 -3.5 92 92 Calm 30.61 1037 10 16.0934 0 0
4:35 am 04:35 Cloudy 28 -2.3 27 -3 95 95 Calm 30.61 1037 10 16.0934 0 0
4:55 am 04:55 Cloudy 29 -1.9 26 -3.1 92 92 Calm 30.62 1037 10 16.0934 0 0
5:15 am 05:15 Cloudy 29 -1.7 27 -2.9 92 92 Calm 30.64 1038 10 16.0934 0 0
5:35 am 05:35 Cloudy 29 -1.5 28 -2.4 94 94 Calm 30.65 1038 10 16.0934 0 0
5:55 am 05:55 Cloudy 30 -1.3 27 -2.6 91 91 Calm 30.66 1038 10 16.0934 0 0
6:15 am 06:15 Cloudy 30 -1.1 28 -2.4 91 91 Calm 30.66 1038 10 16.0934 0 0
6:35 am 06:35 Cloudy 30 -1 28 -2.2 92 92 Calm 30.67 1039 10 16.0934 0 0
6:55 am 06:55 Cloudy 30 -0.9 28 -2.5 89 89 Calm 30.67 1039 10 16.0934 0 0
7:15 am 07:15 Cloudy 31 -0.8 29 -1.9 92 92 Calm 30.67 1039 10 16.0934 0 0
7:35 am 07:35 Cloudy 31 -0.6 27 -2.6 87 87 Calm 30.67 1039 10 16.0934 0 0
7:55 am 07:55 Cloudy 31 -0.3 27 -2.7 84 84 Calm 30.67 1038 10 16.0934 0 0
8:15 am 08:15 Cloudy 31 -0.3 28 -2 88 88 Calm 30.68 1039 10 16.0934 0 0
8:35 am 08:35 Cloudy 32 0 28 -2.3 85 85 Calm 30.68 1039 10 16.0934 0 0
8:55 am 08:55 Cloudy 34 0.9 25 -4 70 70 S 7 11 30.67 1039 10 16.0934 0 0
9:15 am 09:15 Cloudy 34 1.3 26 -3.6 70 70 S 6 9 30.68 1039 10 16.0934 0 0
9:35 am 09:35 Cloudy 35 1.8 27 -3 71 71 S 7 11 30.68 1039 10 16.0934 0 0
9:55 am 09:55 Cloudy 37 2.7 27 -2.8 67 67 SSW 7 11 30.68 1039 10 16.0934 0 0
10:15 am 10:15 Partly Cloudy 38 3.1 26 -3.2 64 64 SW 9 15 30.68 1039 10 16.0934 0 0
10:35 am 10:35 Sunny 39 4.1 26 -3.1 60 60 SSW 7 11 30.67 1039 10 16.0934 0 0
10:55 am 10:55 Sunny 41 4.8 26 -3.3 56 56 WSW 8 13 30.67 1039 10 16.0934 0 0
11:15 am 11:15 Sunny 41 5 25 -3.7 54 54 SW 7 11 30.67 1039 10 16.0934 0 0
11:35 am 11:35 Sunny 42 5.6 26 -3.5 52 52 WSW 7 11 30.66 1038 10 16.0934 0 0
11:55 am 11:55 Sunny 44 6.5 26 -3.4 50 50 SW 9 15 30.64 1038 10 16.0934 0 0
12:15 pm 12:15 Sunny 44 6.6 25 -4.1 47 47 WSW 10 17 30.63 1037 10 16.0934 0 0
12:35 pm 12:35 Sunny 44 6.8 24 -4.2 46 46 SW 7 11 30.62 1037 10 16.0934 0 0
12:55 pm 12:55 Sunny 45 7.4 24 -4.6 43 43 SW 10 17 30.61 1036 10 16.0934 0 0
1:15 pm 13:15 Sunny 46 7.8 24 -4.5 42 42 SW 9 15 30.6 1036 10 16.0934 0 0
1:35 pm 13:35 Sunny 47 8.1 25 -4 43 43 SSW 13 20 30.58 1036 10 16.0934 0 0
1:55 pm 13:55 Sunny 46 8 24 -4.6 41 41 SW 10 17 30.58 1036 10 16.0934 0 0
2:15 pm 14:15 Sunny 47 8.3 25 -4 42 42 SW 13 20 30.56 1035 10 16.0934 0 0
2:35 pm 14:35 Sunny 47 8.3 24 -4.6 40 40 SSW 12 19 30.56 1035 10 16.0934 0 0
2:55 pm 14:55 Sunny 47 8.5 24 -4.7 39 39 SSW 10 17 30.54 1034 10 16.0934 0 0
3:15 pm 15:15 Sunny 47 8.6 22 -5.6 36 36 SW 14 22 30.54 1034 10 16.0934 0 0
3:35 pm 15:35 Sunny 47 8.6 21 -6 35 35 SW 13 20 30.53 1034 10 16.0934 0 0
3:55 pm 15:55 Sunny 47 8.6 21 -5.9 36 36 SSW 13 20 30.53 1034 10 16.0934 0 0
4:15 pm 16:15 Sunny 47 8.6 22 -5.4 37 37 SW 10 17 30.52 1034 10 16.0934 0 0
4:35 pm 16:35 Sunny 47 8.3 22 -5.5 37 37 SSW 13 20 30.52 1034 10 16.0934 0 0
4:55 pm 16:55 Sunny 46 8 22 -5.3 39 39 SW 12 19 30.52 1034 10 16.0934 0 0
5:15 pm 17:15 Sunny 44 6.9 24 -4.7 44 44 SW 8 13 30.53 1034 10 16.0934 0 0
5:35 pm 17:35 Clear 44 6.8 23 -4.8 44 44 SW 9 15 30.52 1033 10 16.0934 0 0
5:55 pm 17:55 Clear 44 6.6 23 -5.1 43 43 SW 10 17 30.52 1033 10 16.0934 0 0
6:15 pm 18:15 Clear 42 5.4 24 -4.6 49 49 SW 8 13 30.52 1034 10 16.0934 0 0
6:35 pm 18:35 Clear 43 6.1 24 -4.5 47 47 SW 10 17 30.51 1033 10 16.0934 0 0
6:55 pm 18:55 Clear 42 5.8 24 -4.4 48 48 SW 8 13 30.51 1033 10 16.0934 0 0
7:15 pm 19:15 Clear 42 5.5 24 -4.2 50 50 SW 9 15 30.5 1033 10 16.0934 0 0
7:35 pm 19:35 Clear 41 5.1 25 -4 52 52 SW 9 15 30.5 1033 10 16.0934 0 0
7:55 pm 19:55 Clear 42 5.4 25 -4.1 51 51 SW 9 15 30.49 1033 10 16.0934 0 0
8:15 pm 20:15 Clear 42 5.3 25 -4 51 51 SSW 6 9 30.48 1032 10 16.0934 0 0
8:35 pm 20:35 Clear 41 5.2 25 -4 52 52 SSW 8 13 30.47 1032 10 16.0934 0 0
8:55 pm 20:55 Clear 41 4.9 25 -3.9 53 53 SW 9 15 30.46 1032 10 16.0934 0 0
9:15 pm 21:15 Clear 40 4.6 24 -4.2 53 53 SSW 9 15 30.46 1032 10 16.0934 0 0
9:35 pm 21:35 Clear 39 4.1 25 -4 56 56 SW 7 11 30.46 1032 10 16.0934 0 0
9:55 pm 21:55 Clear 40 4.2 25 -4 56 56 SW 8 13 30.45 1031 10 16.0934 0 0
10:15 pm 22:15 Clear 38 3.5 24 -4.2 57 57 SW 8 13 30.46 1031 10 16.0934 0 0
10:35 pm 22:35 Clear 39 3.8 24 -4.3 56 56 SW 7 11 30.45 1031 10 16.0934 0 0
10:55 pm 22:55 Clear 38 3.5 24 -4.4 57 57 SW 8 13 30.45 1031 10 16.0934 0 0
11:15 pm 23:15 Clear 38 3.4 24 -4.5 57 57 SW 7 11 30.45 1031 10 16.0934 0 0
11:35 pm 23:35 Clear 38 3.6 24 -4.7 55 55 SW 7 11 30.44 1031 10 16.0934 0 0
11:55 pm 23:55 Clear 37 2.9 24 -4.5 59 59 SW 8 13 30.43 1030 10 16.0934 0 0

Powered by AerisWeather